Location: Baumgartsau
(48.4586°N, 14.0864°E)
Time: 13:20:53
(UTC+00:00)

BREEZE M DEB (TANK) - Pass Details

Date: 15 August 2020
Orbit: 304 x 11869 km, 49.5° (Epoch: 20 September)

Event Time Altitude Azimuth Distance (km) Brightness Sun altitude
Exits shadow 02:35:39 13° 236° (SW) 9,516 7.9 -12.5°
Maximum altitude 03:00:34 75° 158° (SSE) 2,042 5.1 -9.2°
Drops below altitude 10° 03:07:06 10° 74° (ENE) 2,793 7.3 -8.3°
Sets 03:08:39 0° 72° (ENE) 3,361 8.2 -8.1°
